Flag for Sweden Weather past 2 weeks in Linköping, Sweden

Now
52 °F

More clouds than sun.


Feels Like: 51 °F
Forecast: 49 / 59 °F
Wind: 3 mph from Southwest

Location: Linkoping / Saab

Current Time: Sep 4, 2015 at 8:12:28 AM

Latest Report: Sep 4, 2015 at 7:20 AM


Visibility: N/A

Pressure: 29.86 "Hg

Humidity: 94%

Dew point: 50 °F

Location of LinköpingLocation

Historic Weather in Linköping — Graph

°F

Linköping temperature yesterday

Maximum temperature yesterday: 66 °F (at 3:50 PM)
Minimum temperature yesterday: 52 °F (at 3:50 AM)
Average temperature yesterday: 58 °F

Past Weeks' High & Low Weather Summary

 TemperatureHumidityPressure
High77 °F (Aug 22, 4:20 PM)100% (Aug 20, 6:20 AM)30.42 "Hg (Aug 20, 6:20 AM)
Low43 °F (Aug 20, 6:20 AM)33% (Aug 21, 6:20 PM)29.62 "Hg (Aug 27, 2:50 PM)
Average62 °F76%29.99 "Hg
* Reported Aug 20 6:20 AM — Sep 4 6:50 AM, Linköping, Weather by CustomWeather, © 2015

Note: Actual official high and low records may vary slightly from our data, if they occured in-between our weather recording intervals... More about our weather records

Advertising

Linköping weather history for previous 24 hours

 ConditionsComfort  
Time TempWeatherWind HumidityBarometerVisibility
6:50 AM
Fri, Sep 4
52 °FPassing clouds.3 mph94%29.86 "HgN/A
6:20 AM54 °FClear.3 mph94%29.86 "Hg10 mi
5:50 AM54 °FPassing clouds.No wind94%29.86 "HgN/A
5:20 AM54 °FOvercast.3 mph94%29.86 "HgN/A
4:50 AM54 °FMostly cloudy.5 mph88%29.89 "HgN/A
4:20 AM54 °FPartly cloudy.6 mph88%29.89 "HgN/A
3:50 AM54 °FMostly cloudy.6 mph94%29.89 "HgN/A
3:20 AM54 °FLight rain. Passing clouds.8 mph94%29.89 "HgN/A
2:50 AM55 °FPassing clouds.7 mph88%29.89 "HgN/A
2:20 AM54 °FMostly cloudy.8 mph94%29.89 "HgN/A
1:50 AM54 °FPartly cloudy.6 mph88%29.89 "HgN/A
1:20 AM52 °FPassing clouds.No wind94%29.89 "HgN/A
12:50 AM50 °FPassing clouds.3 mph100%29.89 "HgN/A
12:20 AM50 °FCool.2 mph94%29.89 "HgN/A
11:20 PM
Thu, Sep 3
54 °FClear.2 mph94%29.89 "Hg10 mi
10:50 PM52 °FClear.2 mph94%29.92 "Hg10 mi
10:20 PM54 °FClear.2 mph88%29.92 "Hg10 mi
9:50 PM54 °FClear.2 mph88%29.89 "Hg10 mi
9:20 PM59 °FClear.1 mph72%29.92 "Hg10 mi
8:50 PM57 °FPassing clouds.3 mph72%29.92 "HgN/A
8:20 PM59 °FSunny.3 mph72%29.89 "Hg10 mi
7:50 PM61 °FSunny.3 mph63%29.89 "Hg10 mi
7:20 PM63 °FSunny.5 mph59%29.89 "Hg10 mi
6:50 PM64 °FPassing clouds.6 mph56%29.89 "HgN/A
6:20 PM66 °FSunny.5 mph52%29.89 "Hg10 mi
5:20 PM66 °FPassing clouds.5 mph46%29.89 "HgN/A
4:50 PM66 °FScattered clouds.3 mph43%29.89 "HgN/A
4:20 PM66 °FScattered clouds.5 mph46%29.89 "HgN/A
3:50 PM66 °FScattered clouds.5 mph60%29.89 "HgN/A
3:20 PM64 °FScattered clouds.5 mph60%29.89 "HgN/A
2:50 PM64 °FPartly sunny.5 mph60%29.89 "HgN/A
2:20 PM64 °FScattered clouds.5 mph56%29.92 "HgN/A
1:50 PM63 °FBroken clouds.6 mph64%29.92 "HgN/A
1:20 PM63 °FScattered clouds.3 mph59%29.92 "HgN/A
12:50 PM63 °FScattered clouds.7 mph64%29.92 "HgN/A
12:20 PM61 °FScattered clouds.8 mph72%29.92 "HgN/A
11:50 AM63 °FScattered clouds.7 mph64%29.92 "HgN/A
11:20 AM61 °FScattered clouds.8 mph72%29.92 "HgN/A
10:50 AM61 °FScattered clouds.8 mph72%29.92 "HgN/A
10:20 AM61 °FPassing clouds.8 mph72%29.89 "HgN/A
9:50 AM59 °FPassing clouds.8 mph77%29.89 "HgN/A
9:20 AM59 °FPassing clouds.8 mph77%29.89 "HgN/A
8:50 AM57 °FSunny.9 mph82%29.89 "Hg10 mi
8:20 AM55 °FPassing clouds.6 mph88%29.89 "HgN/A
Weather by CustomWeather, © 2015

See weather overviewHow to use our weather pages